Tracking 27423 objects as of 8-Jun-2023
HD Live streaming from Space Station
objects crossing your sky now

STARLINK-1351

Track STARLINK-1351 now!
10-day predictions
STARLINK-1351 is classified as:


NORAD ID: 45697
Int'l Code: 2020-035AS
Perigee: 553.5 km
Apogee: 555.2 km
Inclination: 53.1 °
Period: 95.6 minutes
Semi major axis: 6925 km
RCS: Unknown
Launch date: June 4, 2020
Source: United States (US)
Launch site: AIR FORCE EASTERN TEST RANGE (AFETR)
Your satellite tracking list
Your tracking list is empty




NASA's NSSDC Master Catalog

Two Line Element Set (TLE):
1 45697U 20035AS  23159.51522171 -.00000658  00000-0 -25288-4 0  9995
2 45697  53.0519 229.0199 0001219  75.6213 284.4911 15.06389426167653
Source of the keplerian elements: AFSPC